Weather History for Bowling Green, KY

Change the Weather History Date:

Saturday, August 11, 2012

  Actual Average Record
Temperature  
Mean Temperature 71 °F 78 °F  
Max Temperature 83 °F 90 °F 105 °F (1918)
Min Temperature 59 °F 67 °F 54 °F (1962)
Degree Days  
Heating Degree Days 0 0  
Month to date heating degree days 0 0  
Since 1 June heating degree days 7 5  
Since 1 July heating degree days 0 0  
Cooling Degree Days 6 13  
Month to date cooling degree days 180 144  
Year to date cooling degree days 1513 1025  
Since 1 June cooling degree days 1134 872  
Growing Degree Days 22 (Base 50)    
Moisture  
Dew Point 55 °F    
Average Humidity 61    
Maximum Humidity 90    
Minimum Humidity 31    
Precipitation  
Precipitation 0.00 in 0.10 in 1.17 in (1948)
Month to date precipitation 1.18 1.08  
Year to date precipitation 25.22 31.31  
Snow  
Snow 0.00 in 0.00 in 0.00 in ()
Month to date snowfall 0.0 0.0  
Since 1 June snowfall 0.0 0.0  
Since 1 July snowfall 0.0 0.0  
Snow Depth 0.00 in    
Sea Level Pressure  
Sea Level Pressure 29.98 in    
Wind  
Wind Speed 3 mph (North)    
Max Wind Speed 12 mph    
Max Gust Speed 18 mph    
Visibility 10 miles    
Events      
T = Trace of Precipitation, MM = Missing Value Source: NWS Daily Summary

Daily Weather History Graph

Daily Weather History Graph

Search for Another Location

Airport:

Trip Planner

Search our weather history database for the weather conditions in past years. The results will help you decide how hot, cold, wet, or windy it might be!

Date:

Astronomy

Aug. 11, 2012 Rise Set
Actual Time 5:59 AM CDT 7:41 PM CDT
Civil Twilight 5:31 AM CDT 8:09 PM CDT
Nautical Twilight 4:58 AM CDT 8:42 PM CDT
Astronomical Twilight 4:22 AM CDT 9:18 PM CDT
Moon 12:30 AM CDT (8/11) 3:12 PM CDT (8/11)
Length of Visible Light 14h 37m
Length of Day
13h 41m
Waning Crescent, 32% of the Moon is Illuminated
Aug 11
Waning Crescent
Aug 17
New
Aug 24
First Quarter
Aug 31
Full
Sep 8
Last Quarter

Hourly Weather History & Observations

Time (CDT) Temp. Heat Index Dew Point Humidity Pressure Visibility Wind Dir Wind Speed Gust Speed Precip Events Conditions
12:53 AM 66.0 °F - 59.0 °F 78% 29.93 in 10.0 mi Calm Calm - N/A   Clear
1:53 AM 64.0 °F - 60.1 °F 87% 29.93 in 10.0 mi Calm Calm - N/A   Clear
2:53 AM 62.1 °F - 59.0 °F 90% 29.93 in 9.0 mi Calm Calm - N/A   Clear
3:53 AM 64.9 °F - 57.0 °F 75% 29.93 in 10.0 mi North 4.6 mph - N/A   Clear
4:53 AM 61.0 °F - 55.9 °F 83% 29.95 in 10.0 mi Calm Calm - N/A   Clear
5:53 AM 61.0 °F - 57.0 °F 87% 29.97 in 10.0 mi Calm Calm - N/A   Clear
6:53 AM 64.0 °F - 57.9 °F 80% 29.99 in 10.0 mi Calm Calm - N/A   Clear
7:53 AM 68.0 °F - 57.0 °F 68% 30.00 in 10.0 mi NNE 3.5 mph - N/A   Clear
8:53 AM 71.1 °F - 55.0 °F 57% 30.01 in 10.0 mi NE 9.2 mph - N/A   Clear
9:53 AM 73.9 °F - 55.0 °F 52% 30.01 in 10.0 mi NE 4.6 mph - N/A   Clear
10:53 AM 75.9 °F - 54.0 °F 46% 30.01 in 10.0 mi Variable 4.6 mph - N/A   Partly Cloudy
11:53 AM 79.0 °F - 55.0 °F 44% 30.01 in 10.0 mi NNE 4.6 mph - N/A   Partly Cloudy
12:53 PM 80.1 °F 79.9 °F 53.1 °F 39% 30.01 in 10.0 mi Calm Calm - N/A   Clear
1:53 PM 82.0 °F - 51.1 °F 34% 29.99 in 10.0 mi WNW 6.9 mph - N/A   Clear
2:53 PM 81.0 °F - 51.1 °F 35% 29.98 in 10.0 mi Variable 3.5 mph - N/A   Clear
3:53 PM 81.0 °F - 48.9 °F 33% 29.97 in 10.0 mi Variable 3.5 mph - N/A   Clear
4:53 PM 82.0 °F - 48.9 °F 31% 29.97 in 10.0 mi NNW 8.1 mph - N/A   Clear
5:53 PM 81.0 °F - 50.0 °F 34% 29.97 in 10.0 mi Variable 6.9 mph - N/A   Clear
6:53 PM 79.0 °F - 51.1 °F 38% 29.97 in 10.0 mi NNW 3.5 mph - N/A   Clear
7:53 PM 75.9 °F - 52.0 °F 43% 29.99 in 10.0 mi WNW 3.5 mph - N/A   Clear
8:53 PM 72.0 °F - 54.0 °F 53% 29.99 in 10.0 mi Calm Calm - N/A   Clear
9:53 PM 68.0 °F - 55.0 °F 63% 30.01 in 10.0 mi Calm Calm - N/A   Clear
10:53 PM 64.9 °F - 55.9 °F 73% 30.01 in 10.0 mi Calm Calm - N/A   Clear
11:53 PM 63.0 °F - 57.0 °F 81% 30.01 in 10.0 mi Calm Calm - N/A   Clear